Overview Statistics Trail Chart Weather Telemetry Raw packets
 

This is the latest recevied weather packets stored in our database for station/object ea1bqo-1. If no packets are shown the sender has not sent any weather packets the latest 10 day(s).

<< 6 7 8 9 10 11 12 >>
Time Temp. Humidity Pressure Rain* Wind** Luminosity Snow
1788508019 17.78° C 66% 1021.1 hPa 0 mm - - -
1788507479 17.22° C 70% 1021 hPa 0 mm - - -
1788506939 16.67° C 73% 1021.1 hPa 0 mm - - -
1788506399 15.56° C 77% 1020.8 hPa 0 mm - - -
1788505859 15° C 79% 1020.8 hPa 0 mm - - -
1788505319 14.44° C 81% 1020.8 hPa 0 mm - - -
1788504779 13.89° C 82% 1020.6 hPa 0 mm - - -
1788504239 13.33° C 83% 1020.4 hPa 0 mm - - -
1788503699 12.78° C 83% 1020.5 hPa 0 mm - - -
1788503159 12.22° C 83% 1020.4 hPa 0 mm - - -
1788502619 12.22° C 82% 1020.3 hPa 0 mm - - -
1788502079 12.22° C 81% 1020.4 hPa 0 mm - - -
1788501539 12.22° C 81% 1020.2 hPa 0 mm - - -
1788500999 12.22° C 80% 1020.1 hPa 0 mm - - -
1788500459 12.22° C 80% 1020.1 hPa 0 mm - - -
1788499919 12.22° C 79% 1020.1 hPa 0 mm - - -
1788499379 12.22° C 78% 1020 hPa 0 mm - - -
1788498839 12.22° C 77% 1019.9 hPa 0 mm - - -
1788498306 12.78° C 76% 1020 hPa 0 mm - - -
1788497759 12.78° C 76% 1019.9 hPa 0 mm - - -
1788497219 13.33° C 74% 1019.9 hPa 0 mm - - -
1788496139 13.33° C 73% 1019.8 hPa 0 mm - - -
1788495599 13.33° C 71% 1019.8 hPa 0 mm - - -
1788495059 13.89° C 71% 1019.8 hPa 0 mm - - -
1788494519 13.89° C 71% 1019.8 hPa 0 mm - - -

* Rain latest hour (hover to see other rain measurements)
** Current wind speed in m/s (hover to see current wind gust speed)